Skip Page Navigation
NASA JPL Caltech
NASA Logo - Jet Propulsion Laboratory + View the NASA Portal
+ Near-Earth Object (NEO) Program
Search JPL
JPL Home Earth Solar System Stars & Galaxies Technology
JPL Solar System Dynamics
BODIES ORBITS EPHEMERIDES TOOLS PHYSICAL DATA DISCOVERY FAQ SITE MAP
JPL Small-Body Database Browser
Search: [ help ]  
7312 (1996 AT3)
Classification: Main-belt Asteroid          SPK-ID: 2007312
Ephemeris | Orbit Diagram | Orbital Elements | Physical Parameters | Discovery Circumstances | Close-Approach Data ]

[ show orbit diagram ]
Orbital Elements at Epoch 2457000.5 (2014-Dec-09.0) TDB
Reference: JPL 8 (heliocentric ecliptic J2000)
 Element Value Uncertainty (1-sigma)   Units 
e .1367569133540164 6.5912e-08  
a 2.763227043276015 2.4276e-08 AU
q 2.385336641941242 1.8497e-07 AU
i 3.206087473196797 6.5979e-06 deg
node 149.4307831789378 0.00013808 deg
peri 293.633826326743 0.00014158 deg
M 72.86663078028388 2.7719e-05 deg
tp 2456660.914239574639
(2014-Jan-03.41423957)
0.0001293 JED
period 1677.734683819202
4.59
2.211e-05
6.053e-08
d
yr
n .214575047814172 2.8277e-09 deg/d
Q 3.141117444610788 2.7596e-08 AU
  Orbit Determination Parameters
   # obs. used (total)      861  
   data-arc span      13153 days (36.01 yr)  
   first obs. used      1978-03-15  
   last obs. used      2014-03-19  
   planetary ephem.      DE431  
   SB-pert. ephem.      SB431-BIG16  
   condition code      0  
   fit RMS      .50653  
   data source      ORB  
   producer      Otto Matic  
   solution date      2014-Jun-16 13:36:52  

Additional Information
 Earth MOID = 1.40323 AU 
 T_jup = 3.325 
[ show covariance matrix ]

Ephemeris | Orbit Diagram | Orbital Elements | Physical Parameters | Discovery Circumstances | Close-Approach Data ]

Physical Parameter Table
Parameter Symbol Value Units Sigma Reference Notes
absolute magnitude H 13.5 mag n/a MPO279592  

7312 (1996 AT3)          Discovered 1996-Jan-13 by Ueda, S., Kaneda, H. at Kushiro (399)
Reference: DISCOVERY.DBLast Updated: 2003-08-29

[ show close-approach data ]
Alternate Designations
 1996 AT3 = 1978 EC10 = 1990 WM5 
Ephemeris | Orbit Diagram | Orbital Elements | Physical Parameters | Discovery Circumstances | Close-Approach Data ]
ABOUT SSD CREDITS/AWARDS PRIVACY/COPYRIGHT GLOSSARY LINKS
FirstGov 2014-Nov-26 13:57 UT
(server date/time)  
NASA Home Page
Site Manager:   Donald K. Yeomans
Webmaster  Alan B. Chamberlin